Vorticity
nan nan nan nan nan nan nan nan nan nan nan nan nan nan nan nan nan nan nan nan nan nan nan nan nan nan nan nan nan nan nan nan nan nan nan nan nan nan nan nan nan nan nan nan nan nan nan nan nan nan nan nan nan nan nan nan nan nan nan nan nan nan nan nan nan nan nan nan nan nan nan nan nan nan nan nan nan nan nan nan nan nan nan nan nan nan nan nan nan nan nan nan nan nan nan nan nan nan nan nan nan nan nan
nan 5 4 5 5 5 6 5 2 2 4 5 4 4 5 6 5 5 4 3 2 4 6 6 4 3 3 4 5 6 5 5 5 5 5 5 5 5 5 5 6 6 6 5 5 6 6 5 5 5 5 5 5 5 5 4 4 4 4 4 4 4 4 4 4 4 3 3 3 3 3 3 3 3 3 3 3 3 3 3 4 4 4 5 5 5 6 7 7 6 6 6 5 5 6 8 12 13 10 9 7 7 nan
nan 4 5 6 6 6 6 4 2 3 6 7 6 5 5 4 4 5 5 4 3 3 4 4 3 2 2 3 5 6 6 5 5 5 5 5 5 5 5 6 6 6 6 6 6 6 5 5 5 5 5 4 3 5 8 6 4 4 4 4 4 4 4 4 4 4 4 4 4 4 4 4 4 4 3 3 3 3 3 3 3 4 4 5 6 7 8 8 8 7 7 7 7 8 11 13 15 12 10 9 8 7 nan
nan 3 6 7 6 6 6 4 3 4 6 8 6 4 4 4 5 5 6 6 5 3 3 3 2 1 1 1 3 5 6 6 5 5 4 4 4 5 5 5 6 7 7 8 9 7 6 5 5 6 5 2 3 7 9 7 5 4 5 5 5 4 4 4 5 5 5 5 5 5 4 4 4 4 4 3 3 3 3 3 3 4 5 6 7 7 8 8 8 7 7 7 8 13 15 15 12 10 9 9 8 8 nan
nan 4 6 6 6 6 5 5 4 4 5 7 7 5 4 5 5 5 6 7 6 5 3 3 3 2 1 0 1 4 6 7 7 6 4 4 4 5 5 3 4 7 7 9 12 11 8 9 8 5 4 3 5 8 7 6 5 5 5 5 5 5 5 5 5 5 6 6 6 5 5 5 5 5 4 4 3 3 3 3 4 5 5 6 6 6 7 8 8 7 8 8 12 15 13 10 8 7 8 7 7 7 nan
nan 5 4 5 7 6 5 5 5 4 5 6 6 6 7 8 5 4 7 9 8 7 5 5 5 3 2 1 -0 3 5 7 8 8 6 5 6 6 6 4 4 7 7 7 9 9 10 12 12 7 6 6 5 7 6 5 5 5 5 5 5 5 5 5 5 5 6 6 6 6 6 6 6 5 5 5 5 5 5 6 7 7 7 6 6 6 6 7 7 8 10 12 15 13 9 7 6 7 7 7 6 6 nan
nan 5 5 5 6 6 6 6 6 5 4 4 6 8 9 9 7 5 7 8 8 8 7 7 7 6 5 4 2 2 5 6 8 8 9 8 7 8 7 7 6 7 6 6 5 5 8 10 11 9 8 7 6 6 5 5 5 5 5 5 5 5 6 5 5 5 5 5 6 6 7 6 6 6 6 6 6 6 8 10 10 9 9 8 6 5 5 5 6 10 13 16 14 10 8 7 7 7 7 6 6 7 nan
nan 5 6 5 4 5 6 7 7 6 4 3 5 8 9 9 8 7 7 8 8 9 9 8 9 9 7 6 5 4 6 7 7 7 8 8 8 8 7 7 7 7 7 7 5 4 5 5 6 7 8 8 8 6 5 5 4 5 5 5 5 5 5 5 5 5 5 5 6 6 7 7 7 7 7 7 7 8 10 12 10 9 8 8 7 6 7 7 8 13 14 15 11 8 8 7 7 7 7 6 7 7 nan
nan 6 6 5 4 4 6 6 6 6 5 4 4 6 7 7 8 8 8 8 8 9 10 10 10 10 9 7 6 6 7 7 7 6 7 7 7 7 7 6 7 7 8 7 7 5 3 1 1 5 8 9 9 8 7 6 5 5 5 4 4 4 4 4 5 5 5 6 6 6 7 7 7 7 8 9 9 11 12 12 9 7 7 7 7 7 8 9 12 13 12 11 9 8 8 7 6 7 6 6 7 8 nan
nan 7 6 5 4 5 6 5 4 5 5 5 4 5 6 6 7 8 7 8 8 8 10 11 12 12 10 8 7 7 6 6 6 6 6 6 6 6 6 6 6 7 8 8 8 7 6 5 5 7 9 10 10 10 10 9 7 7 7 7 6 5 6 7 8 7 7 7 6 7 7 7 7 8 10 11 12 13 11 9 8 7 6 6 6 8 9 11 12 11 9 8 8 9 8 8 7 7 6 6 7 8 nan
nan 7 7 5 5 6 6 5 3 4 6 6 5 5 6 7 7 7 7 7 7 7 8 9 10 11 10 8 7 7 6 6 6 6 6 6 6 6 6 6 6 7 7 8 8 9 10 11 11 10 10 10 10 11 12 12 12 11 11 10 9 8 8 10 10 9 9 8 9 9 8 7 8 11 12 12 12 10 9 8 7 7 7 7 7 8 9 9 9 8 8 7 8 9 8 8 8 7 7 7 7 8 nan
nan 8 8 7 7 7 7 4 2 4 6 6 6 6 8 8 7 7 7 7 8 7 7 8 8 8 9 8 7 7 7 7 7 6 6 7 7 7 7 6 6 6 7 7 8 8 9 10 10 8 7 7 8 9 10 11 12 11 11 10 10 10 9 9 8 8 8 8 10 10 8 8 9 11 11 10 9 8 8 8 7 7 7 7 7 8 8 8 8 8 8 8 8 8 8 8 8 7 7 7 7 8 nan
nan 8 9 8 8 9 7 5 2 4 6 6 6 8 8 7 6 7 7 7 7 7 7 7 8 8 8 8 8 7 8 8 7 7 7 7 7 7 7 6 6 6 6 6 6 6 7 7 7 7 6 6 6 7 7 8 8 8 8 8 8 10 9 7 7 7 7 8 9 9 8 8 8 9 9 9 9 8 8 8 8 7 6 6 7 7 7 7 7 7 7 8 8 8 8 8 8 7 7 7 7 8 nan
nan 6 7 8 9 10 8 6 2 2 5 6 8 9 8 6 5 6 7 8 7 7 6 7 7 7 7 7 7 7 7 8 8 8 7 7 7 6 6 6 6 6 6 6 6 6 6 6 6 7 7 6 6 7 7 7 7 7 6 7 7 9 9 7 6 7 7 8 8 8 7 7 7 8 8 8 8 8 8 8 8 8 7 7 7 6 6 6 6 6 7 8 8 8 8 8 8 7 7 7 7 8 nan
nan 6 7 8 8 8 9 8 3 1 4 6 8 8 7 6 6 7 7 8 8 7 6 6 7 7 7 7 6 7 7 7 8 8 7 6 6 6 6 6 6 6 6 6 6 6 6 7 6 7 7 7 6 7 8 8 8 7 7 6 7 9 9 7 6 6 7 8 7 7 7 7 7 8 8 8 7 7 8 8 8 8 9 9 8 7 6 6 6 6 7 8 8 9 9 9 8 8 7 7 8 8 nan
nan 7 7 7 7 7 8 8 6 3 4 5 7 7 7 7 7 7 8 9 9 6 6 7 8 7 7 7 7 7 7 8 8 8 7 6 6 6 6 6 7 6 7 7 7 7 7 7 7 8 8 7 7 8 8 8 8 8 7 7 7 9 9 8 7 6 7 7 7 7 7 7 7 7 7 7 6 7 7 8 8 8 9 9 9 9 8 7 6 7 8 8 8 9 9 8 8 8 8 7 8 8 nan
nan 7 7 7 6 7 6 6 6 6 5 5 5 6 6 7 7 8 9 9 8 6 7 8 8 6 6 7 7 7 8 8 8 8 8 7 6 6 6 7 7 7 7 7 7 7 7 7 8 8 8 7 8 8 8 8 7 7 7 7 7 8 9 8 8 6 6 7 7 7 7 7 6 6 6 7 7 7 7 7 7 8 8 8 9 9 9 8 7 7 8 8 8 8 8 8 8 8 8 8 7 7 nan
nan 8 7 6 6 7 6 4 5 6 7 5 4 5 6 7 7 8 8 8 7 7 8 9 8 6 7 7 8 9 9 8 7 8 8 8 7 7 7 7 7 8 7 7 7 7 7 7 9 8 7 7 8 7 7 7 7 7 7 8 8 8 7 8 7 7 6 6 7 7 7 7 6 7 7 7 7 7 7 7 7 8 8 8 9 9 9 8 8 7 7 7 8 7 7 7 8 8 8 8 8 7 nan
nan 9 8 6 6 6 6 4 4 7 7 6 4 4 6 7 7 7 7 7 7 8 9 8 7 6 7 8 9 9 9 8 8 8 9 10 10 8 8 7 7 8 8 8 8 8 8 8 8 7 7 7 8 8 7 7 6 7 7 8 9 8 7 7 7 8 7 6 6 7 7 7 7 7 7 7 7 7 7 7 7 8 8 8 8 8 8 9 8 7 7 7 7 6 7 7 7 7 8 8 8 7 nan
nan 10 8 6 5 5 6 5 6 7 7 6 5 5 7 7 7 7 6 7 8 9 9 8 6 7 8 9 10 9 9 8 9 9 10 10 11 10 9 8 8 8 8 8 8 8 8 8 8 7 7 7 8 8 8 7 7 7 8 8 10 8 7 6 7 9 8 7 7 7 7 7 7 7 6 7 7 7 7 7 8 8 7 7 7 8 8 8 8 7 7 7 6 7 8 8 7 7 7 7 8 8 nan
nan 9 7 6 6 6 6 5 7 7 6 5 6 6 7 7 7 8 7 7 7 9 9 8 7 8 9 9 10 10 9 9 9 9 9 10 11 11 11 10 9 9 9 9 9 8 8 9 8 7 7 7 7 8 8 8 8 7 8 8 9 9 7 7 8 9 8 8 8 7 7 6 7 7 7 7 7 7 8 8 9 8 7 7 7 7 7 7 7 7 7 7 7 7 8 8 9 8 8 7 7 8 nan
nan 8 7 6 6 7 7 5 6 6 6 6 6 7 7 8 7 8 8 8 8 8 8 8 8 8 9 8 8 9 8 8 8 8 8 8 9 12 12 11 9 10 9 9 9 9 9 9 8 7 7 7 7 8 8 8 10 9 8 8 9 9 8 7 8 9 9 8 8 8 8 9 8 8 8 8 9 8 8 9 9 8 7 7 7 7 8 8 8 8 7 7 7 7 7 7 8 9 8 7 7 6 nan
nan 7 7 7 6 7 8 6 5 5 6 7 7 7 7 8 8 8 9 9 9 9 9 8 9 9 9 7 6 6 7 7 7 7 7 7 8 10 11 10 9 9 8 8 8 9 9 9 8 8 7 7 7 8 8 8 9 9 8 8 9 9 8 7 8 8 9 9 9 8 9 10 10 10 10 10 9 8 8 9 9 9 8 7 7 7 8 9 10 8 7 6 7 6 7 7 8 8 8 7 7 7 nan
nan 7 7 8 7 6 7 7 5 5 6 8 8 8 8 8 9 9 9 9 8 8 8 8 9 10 9 8 7 6 6 6 7 6 6 6 7 8 8 8 8 8 8 7 6 8 8 9 8 8 8 8 8 8 8 9 9 9 8 8 9 10 9 9 9 9 9 9 9 8 8 9 10 11 11 11 10 9 8 7 7 8 9 8 7 6 7 8 9 8 8 8 7 6 6 7 8 8 8 7 8 8 nan
nan 7 7 8 7 7 7 7 6 6 7 7 8 8 9 8 8 8 7 7 6 6 7 8 9 9 9 8 7 6 6 7 7 6 5 5 5 5 6 6 7 9 9 8 7 7 8 8 8 10 10 10 10 9 9 9 8 8 8 9 9 10 10 10 10 9 8 8 8 7 6 6 8 9 9 9 9 9 7 6 6 7 8 8 7 6 7 7 8 7 8 9 8 7 7 7 7 7 8 8 8 8 nan
nan 9 8 9 9 8 7 8 9 9 8 8 9 9 8 6 5 7 7 7 7 7 8 9 9 8 8 8 7 7 7 7 7 6 6 5 5 6 7 8 9 9 9 8 8 8 8 9 12 12 11 11 11 11 10 9 7 7 8 9 9 10 10 10 9 9 8 8 7 6 5 5 6 7 7 6 6 6 6 5 6 6 6 7 7 7 7 7 7 8 8 9 8 8 9 9 7 6 7 8 8 9 nan
nan 11 10 11 13 11 9 9 11 11 9 9 10 9 7 5 5 7 8 8 8 8 9 10 10 9 7 7 8 8 8 8 8 8 7 6 7 9 10 10 10 9 9 9 9 9 9 10 12 12 11 11 10 11 10 10 9 9 9 10 9 9 9 9 8 8 8 8 7 6 6 5 6 6 6 6 6 6 6 6 6 5 4 5 6 8 8 8 6 8 8 8 7 8 9 10 8 6 7 8 8 9 nan
nan 15 13 12 15 15 11 9 10 10 8 8 10 10 7 6 6 6 7 7 8 9 9 10 10 9 8 7 8 8 9 9 9 9 9 9 10 11 11 11 10 10 10 10 11 11 10 11 11 12 11 10 10 9 9 10 11 11 10 10 10 9 9 9 8 8 7 8 8 6 6 6 6 5 6 6 6 7 7 7 6 6 5 5 5 7 7 7 7 8 8 7 6 8 9 9 8 8 7 8 7 8 nan
nan 19 18 14 14 14 10 9 10 10 9 8 9 9 7 7 7 5 5 5 7 7 7 9 10 9 8 8 8 8 9 9 10 10 10 10 10 11 10 10 9 10 11 12 11 11 10 10 10 11 10 10 9 9 9 10 10 7 6 9 12 10 9 9 9 8 7 7 7 6 6 6 6 6 5 5 5 6 7 8 8 8 7 6 5 5 5 6 7 8 7 7 6 7 7 8 8 8 8 8 7 7 nan
nan 16 18 17 14 12 9 9 12 13 12 11 9 8 8 8 7 5 4 4 5 6 6 8 10 9 9 8 8 7 8 8 10 10 10 9 9 10 9 9 10 12 13 13 11 9 9 9 9 8 8 8 8 8 9 9 8 5 6 9 11 9 8 8 9 8 7 6 6 6 6 7 8 8 5 4 4 6 6 7 9 9 8 7 7 6 6 6 7 8 8 7 8 7 6 7 8 8 9 8 8 8 nan
nan 11 13 15 14 11 9 9 11 13 14 13 12 11 11 10 8 6 5 6 6 6 6 9 10 10 9 9 8 7 8 8 9 9 9 9 9 8 7 8 11 14 15 13 9 7 8 8 7 6 6 6 6 6 6 5 3 5 8 10 9 7 7 6 7 8 7 7 7 7 7 8 8 9 7 6 7 8 8 7 8 9 9 8 7 6 6 6 7 7 8 7 8 8 6 6 7 8 8 9 8 9 nan
nan 7 9 10 11 8 5 4 5 8 10 10 10 11 12 11 9 7 7 8 7 7 7 9 10 9 9 9 8 7 8 8 9 9 9 8 8 5 4 7 11 12 14 12 8 6 6 6 5 4 4 4 3 3 2 -1 -2 3 7 8 8 8 7 5 6 7 8 8 8 8 8 8 8 10 10 9 8 8 8 7 7 7 8 8 8 7 7 7 7 7 7 7 8 9 7 7 8 8 8 7 7 8 nan
nan 8 7 7 6 3 1 0 0 1 3 5 7 9 10 10 8 6 7 8 8 7 8 8 8 8 8 8 8 8 8 8 8 8 9 7 5 2 2 7 10 10 11 10 8 5 4 4 4 3 2 2 2 2 -0 -3 -4 1 5 7 8 8 7 5 5 7 8 8 10 10 10 9 9 11 11 10 8 7 6 5 5 5 6 8 9 9 9 8 7 7 6 7 9 10 8 7 8 9 8 7 7 7 nan
nan 8 7 5 4 2 2 2 1 0 1 3 7 11 11 9 6 4 4 5 6 7 7 6 6 7 7 7 7 7 6 6 6 8 8 7 3 1 4 9 10 7 7 8 5 3 4 6 7 5 5 4 4 5 6 4 2 2 6 8 8 6 5 4 5 7 7 9 11 11 10 8 8 11 11 9 6 4 4 3 3 5 7 10 11 10 9 9 8 8 8 8 9 8 8 8 8 9 9 8 8 7 nan
nan 3 0 -1 0 3 4 4 3 0 1 3 7 10 10 8 4 1 1 0 3 6 5 5 5 5 6 6 5 4 4 5 7 8 7 6 4 5 7 11 8 3 3 4 3 3 6 10 10 8 8 7 9 10 12 11 9 7 7 7 4 4 3 3 4 6 8 11 10 8 7 6 7 8 10 9 5 1 2 3 5 9 11 11 9 9 9 8 8 8 9 9 8 8 8 9 9 8 9 9 8 7 nan
nan -1 -4 -6 -5 1 4 3 1 0 1 2 4 6 5 3 0 -0 -0 -1 -2 0 2 4 5 5 5 5 6 7 7 8 8 8 6 5 8 9 7 10 6 -1 1 3 4 5 8 10 9 8 8 10 11 12 13 12 10 8 6 5 3 5 4 2 3 7 10 11 7 5 5 6 8 6 7 8 6 3 3 6 9 13 13 12 9 9 9 8 6 8 9 9 8 8 9 9 8 8 8 8 7 7 nan
nan 1 0 -0 0 4 4 3 3 4 4 3 2 2 2 2 3 5 5 3 -2 -3 1 5 6 5 5 6 9 10 10 10 9 6 3 6 11 8 4 8 7 2 2 3 4 5 6 7 7 8 9 10 11 12 12 12 9 5 3 3 5 4 3 3 6 11 10 7 3 4 6 10 13 7 4 4 5 6 8 11 14 14 13 12 12 12 11 10 8 9 10 10 9 9 8 7 6 7 7 7 8 7 nan
nan 6 8 11 13 11 9 7 7 8 8 7 6 5 5 7 10 11 9 5 2 4 8 10 10 7 6 6 5 4 5 7 7 4 1 5 9 7 5 7 8 5 4 4 5 3 5 7 8 8 8 9 11 13 13 12 7 1 -1 1 5 6 8 11 12 9 4 2 2 6 10 14 13 8 3 1 2 7 10 12 14 14 14 13 12 11 12 12 13 11 11 11 11 11 10 8 5 5 6 7 8 8 nan
nan 9 13 16 18 17 14 12 10 11 11 12 11 10 10 10 10 9 7 5 8 15 18 16 9 5 5 3 1 -0 -1 0 2 3 2 4 6 5 6 7 6 5 5 6 8 7 7 9 9 7 8 9 13 15 14 11 6 2 2 5 10 14 15 15 12 6 3 3 6 10 11 12 9 7 3 1 3 9 10 11 12 14 14 12 8 7 9 11 12 11 10 11 13 14 14 14 11 7 7 7 7 8 nan
nan 12 14 16 17 16 14 12 11 11 11 11 12 11 10 9 9 9 9 10 15 20 18 13 5 2 3 3 5 6 5 5 7 8 6 5 5 6 7 7 4 4 6 7 7 10 10 9 9 11 13 15 15 13 11 8 6 6 10 14 16 15 12 9 9 7 7 10 14 12 9 6 5 5 3 2 9 14 12 12 11 11 10 6 3 5 6 7 7 10 10 10 11 13 14 16 16 12 10 9 7 8 nan
nan 18 19 18 16 14 12 10 10 9 9 9 8 7 8 9 11 10 8 11 14 15 12 9 7 7 8 8 11 13 13 14 14 12 10 8 5 3 4 5 8 11 12 11 9 12 12 12 13 17 18 15 11 9 8 7 7 9 12 13 13 11 10 11 13 13 15 17 18 11 6 2 3 6 7 10 16 14 13 12 11 9 6 2 4 6 6 5 7 9 10 10 11 11 13 14 15 13 13 13 9 7 nan
nan 20 21 19 16 15 14 13 12 11 10 8 5 6 9 11 9 5 6 9 13 11 9 8 9 11 13 14 14 14 13 13 11 9 8 6 4 4 6 8 12 14 15 15 14 13 15 16 16 15 12 9 7 7 7 8 8 9 9 8 9 13 14 16 18 20 19 17 12 8 5 5 10 13 11 13 14 13 12 10 10 9 7 5 6 6 8 9 10 9 10 10 11 10 11 10 9 9 12 16 14 8 nan
nan 15 17 17 16 16 17 16 15 13 12 10 9 11 10 8 4 6 11 16 17 12 8 7 9 10 12 13 13 11 9 9 9 7 6 6 8 11 14 16 16 15 16 16 15 14 15 15 13 9 6 5 6 7 8 9 10 11 11 12 13 13 13 13 14 14 12 10 7 8 9 11 14 12 11 10 9 10 9 9 8 9 10 9 7 6 8 10 11 9 9 8 7 11 11 10 8 7 10 14 19 15 nan
nan 14 15 16 16 16 16 16 15 12 11 12 12 9 5 3 6 14 17 17 14 10 9 9 9 9 8 9 10 9 9 9 9 8 9 10 14 17 17 17 18 20 19 18 16 16 16 16 13 11 11 11 12 13 12 12 11 12 13 15 14 13 11 10 8 7 8 9 9 10 10 11 10 10 10 9 8 7 7 7 7 8 9 10 8 8 6 7 8 8 5 5 8 10 10 13 12 10 10 13 17 19 nan
nan 12 13 13 13 13 13 13 12 10 8 10 11 7 5 7 12 13 11 9 8 9 9 9 9 8 8 8 10 11 12 12 13 13 13 13 13 15 15 14 15 16 16 15 13 13 15 17 16 15 16 18 18 16 16 15 13 13 14 13 13 13 11 9 7 8 10 10 10 9 8 8 9 11 12 11 10 8 8 7 8 9 9 9 9 9 7 6 5 5 7 9 11 10 9 9 7 11 11 12 12 15 nan
nan 11 11 11 12 12 11 10 10 10 10 11 12 11 11 11 11 8 7 6 7 8 9 9 10 11 10 9 10 11 12 13 14 14 13 12 10 8 8 8 10 10 10 10 9 8 11 13 15 14 12 14 15 14 14 16 15 13 13 12 12 12 11 10 10 10 10 10 9 9 9 10 12 12 11 12 11 9 9 9 9 10 10 8 10 11 11 8 6 5 8 9 8 8 7 5 4 7 11 13 10 10 nan
nan 11 12 12 13 13 12 11 10 10 11 12 13 13 13 13 11 10 9 9 9 10 11 11 12 11 10 9 8 9 10 11 10 10 9 9 8 7 4 3 5 7 8 9 8 7 8 9 13 13 10 8 9 10 11 14 15 12 10 11 12 11 11 11 11 10 10 10 9 9 10 11 12 12 12 13 11 11 11 11 10 9 9 9 10 12 14 13 10 6 4 1 0 3 4 6 6 6 9 10 8 7 nan
nan 9 10 11 13 14 13 13 13 13 12 13 14 13 13 13 13 13 13 12 12 12 11 11 10 9 8 7 7 7 7 7 8 8 7 7 8 8 6 2 1 5 8 9 7 7 7 7 9 13 13 8 7 8 10 13 15 13 11 11 10 10 12 12 11 9 9 9 8 9 9 8 11 14 13 12 13 15 14 13 10 9 9 11 12 14 15 16 15 11 8 6 4 3 4 6 10 12 12 7 5 5 nan
nan 8 8 9 10 11 11 10 10 12 13 14 15 13 11 11 12 12 12 12 12 11 10 10 8 8 7 7 7 8 8 7 7 7 8 8 9 9 8 4 0 2 7 11 7 4 6 6 7 11 13 11 8 7 9 12 13 13 12 12 11 10 12 11 9 8 9 10 9 8 8 8 12 13 12 11 12 14 14 13 11 10 11 11 14 16 15 15 14 13 14 15 14 9 9 10 11 12 12 10 9 8 nan
nan 7 8 8 9 10 10 9 6 7 8 10 13 14 11 9 8 9 9 10 10 11 10 10 9 8 7 7 8 9 10 9 7 7 8 9 9 9 9 7 2 1 5 10 9 4 3 5 7 11 13 13 9 7 9 13 13 12 12 13 12 11 11 9 8 8 8 9 9 8 8 9 12 12 12 11 11 11 12 12 11 11 11 11 15 14 10 7 8 11 14 15 15 14 14 15 13 10 9 10 11 11 nan
nan 7 8 9 9 9 11 12 10 9 10 9 9 12 12 10 9 8 8 7 8 10 10 9 9 8 8 8 8 9 9 10 8 8 9 9 9 9 9 8 6 4 5 6 8 5 3 4 6 9 12 14 12 8 9 13 14 12 12 12 11 10 10 9 7 7 7 7 8 9 9 10 11 12 11 11 10 10 9 10 10 9 9 10 12 10 6 3 5 9 11 11 12 15 15 15 15 14 11 10 10 12 nan
nan 8 8 9 10 9 9 11 12 12 13 12 10 10 12 12 12 10 9 8 7 9 9 9 10 10 9 8 7 7 8 10 9 8 8 9 10 10 9 9 8 7 5 5 5 4 4 6 7 8 11 13 13 10 9 11 13 12 11 11 10 9 10 8 7 6 6 7 8 10 10 10 11 10 9 8 8 9 8 9 9 9 8 8 8 9 7 6 7 9 9 9 10 11 12 12 11 12 14 15 13 12 nan
nan 8 9 9 8 8 8 9 10 10 11 12 12 10 10 10 11 11 11 11 10 10 10 10 9 10 11 10 8 8 8 9 9 8 7 8 10 11 10 9 9 8 7 5 2 1 2 5 7 8 9 10 11 10 8 9 9 9 9 10 10 10 9 7 6 6 7 8 9 9 10 11 10 9 8 7 8 9 8 8 9 8 8 7 7 8 7 7 8 9 9 10 10 11 10 9 9 11 12 14 12 10 nan
nan 8 8 7 7 7 8 9 9 9 10 11 11 11 10 9 9 10 11 11 12 11 11 11 10 11 11 11 10 9 9 9 9 8 7 7 9 10 9 9 8 8 8 7 4 1 1 2 5 7 7 6 7 9 8 7 7 8 8 7 8 10 9 6 6 8 9 9 9 10 11 12 12 10 8 7 9 9 9 8 7 7 7 7 7 8 7 7 8 9 9 9 9 9 9 10 10 9 8 8 9 10 nan
nan 7 7 6 6 7 8 9 10 9 10 10 11 11 11 11 11 10 9 9 9 10 10 10 11 11 12 12 11 10 9 9 10 9 8 7 8 9 9 9 8 8 8 8 7 5 2 1 4 7 7 5 5 6 6 6 7 8 7 5 6 8 8 7 8 9 10 9 8 9 11 12 12 11 9 8 9 10 9 8 7 7 8 7 6 8 8 8 9 9 8 7 7 8 8 9 8 7 7 7 8 9 nan
nan 7 7 7 5 7 8 8 8 8 8 9 9 10 10 11 12 11 9 8 7 8 8 8 9 10 11 11 11 10 9 9 10 10 9 8 8 8 9 9 9 8 8 8 8 7 5 2 3 7 7 7 5 5 5 6 8 8 8 6 6 7 8 8 9 9 8 8 8 9 10 10 10 10 10 8 9 10 9 8 8 9 9 7 7 9 9 9 10 10 9 7 7 7 8 8 7 7 8 9 9 8 nan
nan 7 7 8 8 7 7 7 7 6 7 8 8 8 9 10 10 10 9 8 7 7 7 7 8 8 9 9 9 9 9 9 9 9 9 9 9 9 9 9 9 8 8 8 8 8 6 4 4 6 8 8 5 4 5 6 8 8 8 7 7 7 7 7 8 7 6 7 9 10 10 9 9 9 9 8 9 10 10 9 10 10 9 7 8 10 10 10 11 11 10 9 8 8 8 8 9 9 10 10 9 9 nan
nan 7 8 8 9 7 7 8 7 6 6 7 8 8 8 8 9 9 9 8 8 7 8 8 9 9 9 9 9 9 9 10 9 9 9 8 9 9 9 9 9 9 9 8 8 8 7 6 4 6 9 9 6 5 6 7 8 8 8 7 7 6 6 6 7 6 6 8 10 11 10 8 8 9 9 8 9 10 9 10 10 10 9 7 8 11 12 12 12 11 11 10 10 9 9 9 9 8 9 9 9 9 nan
nan 7 7 7 9 8 7 8 9 8 7 7 7 8 8 9 8 9 9 9 8 7 8 8 8 9 9 10 9 9 10 10 9 9 9 8 8 9 9 9 9 9 8 8 7 7 7 6 5 6 10 9 7 6 6 6 7 8 7 6 5 5 6 7 7 7 8 10 12 12 11 9 9 9 8 8 10 11 8 8 10 11 9 8 10 13 14 13 13 12 12 11 11 11 10 9 8 8 9 10 10 10 nan
nan 7 6 6 8 9 9 9 10 10 8 7 7 8 8 9 9 9 9 9 8 8 8 8 8 8 9 10 9 8 8 9 9 9 9 8 7 8 8 8 8 8 7 7 7 7 7 6 5 7 9 8 6 6 5 6 6 7 6 5 5 6 7 8 9 9 10 11 13 13 12 11 10 9 8 9 12 9 6 7 12 13 10 12 13 13 14 16 15 13 12 12 12 12 12 12 11 12 12 11 10 10 nan
nan nan nan nan nan nan nan nan nan nan nan nan nan nan nan nan nan nan nan nan nan nan nan nan nan nan nan nan nan nan nan nan nan nan nan nan nan nan nan nan nan nan nan nan nan nan nan nan nan nan nan nan nan nan nan nan nan nan nan nan nan nan nan nan nan nan nan nan nan nan nan nan nan nan nan nan nan nan nan nan nan nan nan nan nan nan nan nan nan nan nan nan nan nan nan nan nan nan nan nan nan nan nan
CAPE
205 204 225 225 318 357 357 380 324 347 347 323 434 447 447 481 479 475 489 489 503 518 552 552 588 602 602 594 612 680 680 702 724 749 775 775 801 825 848 848 840 828 845 845 860 875 891 891 907 891 891 876 828 813 765 765 749 668 648 648 624 567 510 510 424 369 369 288 168 35 35 13 12 23 50 50 105 162 161 161 183 185 166 166 128 77 77 65 86 90 90 46 22 5 6 6 6 0 nan nan nan nan nan
177 176 223 223 304 312 312 275 252 303 303 252 303 345 345 429 426 422 415 415 426 417 487 487 540 553 553 545 562 605 605 626 648 646 669 669 746 741 791 791 808 825 839 839 853 836 850 850 833 816 816 800 816 833 722 722 706 657 637 637 614 588 530 530 472 415 415 304 204 74 74 16 2 4 12 12 42 63 92 92 108 127 130 130 136 143 143 203 235 240 240 165 101 68 39 39 27 1 nan nan nan nan nan
163 186 263 263 261 254 254 207 214 233 233 212 218 254 254 380 394 407 380 380 370 359 404 404 453 485 485 476 492 532 532 576 573 595 616 616 637 684 702 702 746 819 833 833 845 827 808 808 790 773 773 788 647 313 742 742 694 645 626 626 603 609 581 581 552 494 494 437 297 175 175 65 11 2 1 1 0 10 22 22 50 80 120 120 203 297 297 394 368 314 314 260 236 211 113 113 2 0 nan nan nan nan nan
150 171 220 220 206 227 227 170 187 168 168 173 152 198 198 266 343 354 345 345 315 285 326 326 351 379 379 409 445 485 485 527 548 543 537 537 581 625 558 558 436 753 645 645 743 754 705 705 717 700 700 745 372 81 698 698 650 665 646 646 656 630 602 602 574 515 515 458 374 293 293 193 109 44 9 9 14 29 64 64 116 161 243 243 336 373 373 380 356 301 301 276 251 199 8 8 0 nan nan nan nan nan 0
138 147 182 182 180 175 175 133 160 152 152 131 112 117 117 190 275 300 289 289 243 230 233 233 237 278 278 304 356 414 414 455 473 442 484 484 499 539 497 497 32 239 266 266 615 712 603 603 645 659 659 407 130 429 592 592 639 623 667 667 645 589 561 561 533 505 505 478 423 369 369 316 264 188 142 142 120 118 159 159 210 294 385 385 357 330 330 308 286 263 263 212 243 nan nan nan nan nan nan nan nan nan 0
127 115 113 113 132 126 126 106 120 111 111 113 72 100 100 144 208 229 216 216 222 191 145 145 131 150 150 188 271 368 368 383 307 254 357 357 393 454 223 223 nan nan nan nan nan nan 149 149 606 388 388 237 219 449 521 521 567 581 625 625 603 578 551 551 523 526 526 499 443 389 389 366 340 314 286 286 286 286 287 287 316 408 289 289 261 208 208 187 169 175 175 179 24 nan nan nan nan nan nan nan nan nan 0
76 55 52 52 86 79 79 80 92 82 82 97 77 81 81 124 156 130 103 103 104 105 92 92 65 52 52 83 153 196 196 166 19 6 305 305 293 168 nan nan nan nan nan nan nan nan nan nan 20 381 381 390 264 411 483 483 527 572 584 584 625 632 541 541 576 580 580 521 465 441 441 387 333 366 367 367 367 367 366 366 43 30 42 42 28 41 41 60 64 93 93 5 nan nan nan nan nan nan nan nan nan nan 0
39 nan 40 40 43 36 36 46 56 57 57 68 59 51 51 66 92 56 22 22 20 42 20 20 7 4 4 9 38 53 53 105 nan nan 1 1 nan nan nan nan nan nan nan nan 0 nan nan nan 0 74 74 227 338 404 445 445 519 563 606 606 616 623 564 564 569 541 541 514 519 494 494 408 383 356 388 388 388 418 386 386 nan 0 nan nan nan nan nan nan nan nan nan nan nan nan nan nan nan nan nan nan nan nan nan
16 nan 21 21 9 5 5 17 25 25 25 33 8 16 16 3 26 8 2 2 2 1 2 2 2 1 1 5 16 35 35 nan nan nan nan nan nan nan nan nan nan nan nan nan 0 nan nan nan nan nan nan 199 306 398 438 438 481 524 566 566 544 582 557 557 530 503 503 475 541 546 546 488 401 374 316 316 346 405 nan nan nan nan nan nan nan nan nan nan nan nan nan nan nan nan nan nan nan nan nan nan nan nan nan
15 0 0 0 1 1 1 0 0 0 0 1 1 0 0 1 2 1 0 0 0 1 1 1 1 1 1 1 0 nan nan nan nan nan nan nan nan nan nan nan nan nan nan nan 0 0 109 109 210 20 20 nan 6 38 260 260 349 332 315 315 350 413 305 305 393 313 313 237 375 319 319 238 188 212 3 3 5 nan nan nan nan nan nan nan nan nan nan nan nan nan nan nan nan nan nan nan nan nan nan nan nan nan nan
40 1 1 1 1 1 1 1 0 1 1 1 1 0 0 0 0 0 nan nan 0 0 nan nan 0 0 0 0 nan nan nan nan nan nan nan nan nan nan nan nan nan nan nan nan nan nan nan nan nan nan nan nan nan nan nan nan nan nan nan nan nan 243 nan nan nan nan nan nan 39 nan nan nan nan nan nan nan nan nan nan nan nan nan nan nan nan nan nan nan nan nan nan nan nan nan nan nan nan nan nan nan nan nan nan
41 28 1 1 1 1 1 1 0 0 0 1 0 nan nan 0 0 nan nan nan nan nan nan nan 0 nan nan nan nan nan nan nan nan nan nan nan nan nan nan nan nan nan nan nan nan nan nan nan nan nan nan nan nan nan nan nan nan nan nan nan nan 8 nan nan nan nan nan nan nan nan nan nan nan nan nan nan nan nan nan nan nan nan nan nan nan nan nan nan nan nan nan nan nan nan nan nan nan nan nan nan nan nan nan
20 22 2 2 2 1 1 1 1 1 1 1 0 nan nan 0 nan nan nan nan nan nan nan nan nan nan nan nan nan nan nan nan nan nan nan nan nan nan nan nan nan nan nan nan nan nan nan nan nan nan nan nan nan nan nan nan nan nan nan nan nan nan nan nan nan nan nan nan nan nan nan nan nan nan nan nan nan nan nan nan nan nan nan nan nan nan nan nan nan nan nan nan nan nan nan nan nan nan nan nan nan nan nan
5 2 nan nan 0 1 1 2 1 0 0 0 nan nan nan 0 nan nan nan nan nan nan nan nan nan nan nan nan nan nan nan nan nan nan nan nan nan nan nan nan nan nan nan nan nan nan nan nan nan nan nan nan nan nan nan nan nan nan nan nan nan nan nan nan nan nan nan nan nan nan nan nan nan nan nan nan nan nan nan nan nan nan nan nan nan nan nan nan nan nan nan nan nan nan nan nan nan nan nan nan nan nan nan
nan nan nan nan nan nan nan 0 1 nan nan nan nan nan nan nan nan nan nan nan nan nan nan nan nan nan nan nan nan nan nan nan nan nan nan nan nan nan nan nan nan nan nan nan nan nan nan nan nan nan nan nan nan nan nan nan nan nan nan nan nan nan nan nan nan nan nan nan nan nan nan nan nan nan nan nan nan nan nan nan nan nan nan nan nan nan nan nan nan nan nan nan nan nan nan nan nan nan nan nan nan nan nan
nan nan nan nan nan nan nan nan 0 nan nan nan nan nan nan nan nan nan nan nan nan nan nan nan nan nan nan nan nan nan nan nan nan nan nan nan nan nan nan nan nan nan nan nan nan nan nan nan nan nan nan nan nan nan nan nan nan nan nan nan nan nan nan nan nan nan nan nan nan nan nan nan nan nan nan nan nan nan nan nan nan nan nan nan nan nan nan nan nan nan nan nan nan nan nan nan nan nan nan nan nan nan nan
nan nan nan nan nan nan nan nan nan nan nan nan nan nan nan nan nan nan nan nan nan nan nan nan nan nan nan nan nan nan nan nan nan nan nan nan nan nan nan nan nan nan nan nan nan nan nan nan nan nan nan nan nan nan nan nan nan nan nan nan nan nan nan nan nan nan nan nan nan nan nan nan nan nan nan nan nan nan nan nan nan nan nan nan nan nan nan nan nan nan nan nan nan nan nan nan nan nan nan nan nan nan nan
nan nan nan nan nan nan nan nan nan nan nan nan nan nan nan nan nan nan nan nan nan nan nan nan nan nan nan nan nan nan nan nan nan nan nan nan nan nan nan nan nan nan nan nan nan nan nan nan nan nan nan nan nan nan nan nan nan nan nan nan nan nan nan nan nan nan nan nan nan nan nan nan nan nan nan nan nan nan nan nan nan nan nan nan nan nan nan nan nan nan nan nan nan nan nan nan nan nan nan nan nan nan nan
nan nan nan nan nan nan nan nan nan nan nan nan nan nan nan nan nan nan nan nan nan nan nan nan nan nan nan nan nan nan nan nan nan nan nan nan nan nan nan nan nan nan nan nan nan nan nan nan nan nan nan nan nan nan nan nan nan nan nan nan nan nan nan nan nan nan nan nan nan nan nan nan nan nan nan nan nan nan nan nan nan nan nan nan nan nan nan nan nan nan nan nan nan nan nan nan nan nan nan nan nan nan nan
nan nan nan nan nan nan nan nan nan nan nan nan nan nan nan nan nan nan nan nan nan nan nan nan nan nan nan nan nan nan nan nan nan nan nan nan nan nan nan nan nan nan nan nan nan nan nan nan nan nan nan nan nan nan nan nan nan nan nan nan nan nan nan nan nan nan nan nan nan nan nan nan nan nan nan nan nan nan nan nan nan nan nan nan nan nan nan nan nan nan nan nan nan nan nan nan nan nan nan nan nan nan nan
nan nan nan nan nan nan nan nan nan nan nan nan nan nan nan nan nan nan nan nan nan nan nan nan nan nan nan nan nan nan nan nan nan nan nan nan nan nan nan nan nan nan nan nan nan nan nan nan nan nan nan nan nan nan nan nan nan nan nan nan nan nan nan nan nan nan nan nan nan nan nan nan nan nan nan nan nan nan nan nan nan nan nan nan nan nan nan nan nan nan nan nan nan nan nan nan nan nan nan nan nan nan nan
nan nan nan nan nan nan nan nan nan nan nan nan nan nan nan nan nan nan nan nan nan nan nan nan nan nan nan nan nan nan nan nan nan nan nan nan nan nan nan nan nan nan nan nan nan nan nan nan nan nan nan nan nan nan nan nan nan nan nan nan nan nan nan nan nan nan nan nan nan nan nan nan nan nan nan nan nan nan nan nan nan nan nan nan nan nan nan nan nan nan nan nan nan nan nan nan nan nan nan nan nan nan nan
nan nan nan nan nan nan nan nan nan nan nan nan nan nan nan nan nan nan nan nan nan nan nan nan nan nan nan nan nan nan nan nan nan nan nan nan nan nan nan nan nan nan nan nan nan nan nan nan nan nan nan nan nan nan nan nan nan nan nan nan nan nan nan nan nan nan nan nan nan nan nan nan nan nan nan nan nan nan nan nan nan nan nan nan nan nan nan nan nan nan nan nan nan nan nan nan nan nan nan nan nan nan nan
nan nan nan nan nan nan nan nan nan nan nan nan nan nan nan nan nan nan nan nan nan nan nan nan nan nan nan nan nan nan nan nan nan nan nan nan nan nan nan nan nan nan nan nan nan nan nan nan nan nan nan nan nan nan nan nan nan nan nan nan nan nan nan nan nan nan nan nan nan nan nan nan nan nan nan nan nan nan nan nan nan nan nan nan nan nan nan nan nan nan nan nan nan nan nan nan nan nan nan nan nan nan nan
nan nan nan nan nan nan nan nan nan nan nan nan nan nan nan nan nan nan nan nan nan nan nan nan nan nan nan nan nan nan nan nan nan nan nan nan nan nan nan nan nan nan nan nan nan nan nan nan nan nan nan nan nan nan nan nan nan nan nan nan nan nan nan nan nan nan nan nan nan nan nan nan nan nan nan nan nan nan nan nan nan nan nan nan nan nan nan nan nan nan nan nan nan nan nan nan nan nan nan nan nan nan nan
nan nan nan nan nan nan nan nan nan nan nan nan nan nan nan nan nan nan nan nan nan nan nan nan nan nan nan nan nan nan nan nan nan nan nan nan nan nan nan nan nan nan nan nan nan nan nan nan nan nan nan nan nan nan nan nan nan nan nan nan nan nan nan nan nan nan nan nan nan nan nan nan nan nan nan nan nan nan nan nan nan nan nan nan nan nan nan nan nan nan nan nan nan nan nan nan nan nan nan nan nan nan nan
nan nan nan nan nan nan nan nan nan nan nan nan nan nan nan nan nan nan nan nan nan nan nan nan nan nan nan nan nan nan nan nan nan nan nan nan nan nan nan nan nan nan nan nan nan nan nan nan nan nan nan nan nan nan nan nan nan nan nan nan nan nan nan nan nan nan nan nan nan nan nan nan nan nan nan nan nan nan nan nan nan nan nan nan nan nan nan nan nan nan nan nan nan nan nan nan nan nan nan nan nan nan nan
nan nan nan nan nan nan nan nan nan nan nan nan nan nan nan nan nan nan nan nan nan nan nan nan nan nan nan nan nan nan nan nan nan nan nan nan nan nan nan nan nan nan nan nan nan nan nan nan nan nan nan nan nan nan nan nan nan nan nan nan nan nan nan nan nan nan nan nan nan nan nan nan nan nan nan nan nan nan nan nan nan nan nan nan nan nan nan nan nan nan nan nan nan nan nan nan nan nan nan nan nan nan nan
nan nan nan nan nan nan nan nan nan nan nan nan nan nan nan nan nan 8 nan nan nan nan nan nan nan nan nan nan nan nan nan nan nan nan nan nan nan nan nan nan nan nan nan nan nan nan nan nan nan nan nan nan nan nan nan nan nan nan nan nan nan nan nan nan nan nan nan nan nan nan nan nan nan nan nan nan nan nan nan nan nan nan nan nan nan nan nan nan nan nan nan nan nan nan nan nan nan nan nan nan nan nan nan
nan nan nan nan nan nan nan nan nan nan nan nan nan nan nan nan nan 1 nan nan nan nan nan nan nan nan nan nan nan nan nan nan nan nan nan nan nan nan nan nan nan nan nan nan nan nan nan nan nan nan nan nan nan nan nan nan nan nan nan nan nan nan nan nan nan nan nan nan nan nan nan nan nan nan nan nan nan nan nan nan nan nan nan nan nan nan nan nan nan nan nan nan nan nan nan nan nan nan nan nan nan nan nan
nan nan nan nan nan nan nan nan nan nan nan nan nan nan nan nan nan nan nan nan nan nan nan nan nan nan nan nan nan nan nan nan nan nan nan nan nan nan nan nan nan nan nan nan nan nan nan nan nan nan nan nan nan nan nan nan nan nan nan nan nan nan nan nan nan nan nan nan nan nan nan nan nan nan nan nan nan nan nan nan nan nan nan nan nan nan nan nan nan nan nan nan nan nan nan nan nan nan nan nan nan nan nan
nan nan nan nan nan nan nan nan nan nan nan nan nan nan nan nan nan nan nan nan nan nan nan nan nan nan nan nan nan nan nan nan nan nan nan nan nan nan nan nan nan nan nan nan nan nan nan nan nan nan nan nan nan nan nan nan nan nan nan nan nan nan nan nan nan nan nan nan nan nan nan nan nan nan nan nan nan nan nan nan nan nan nan nan nan nan nan nan nan nan nan nan nan nan nan nan nan nan nan nan nan nan nan
nan nan nan nan nan nan nan nan nan nan nan nan nan nan nan nan nan nan nan nan nan nan nan nan nan 1 1 0 nan nan nan nan nan nan nan nan nan nan nan nan nan nan nan nan nan nan nan nan nan nan nan nan nan 1 nan nan 3 41 1 1 nan nan nan nan nan nan nan nan nan nan nan nan nan nan nan nan nan nan nan nan nan nan nan nan nan nan nan nan nan nan nan nan nan nan nan nan nan nan nan nan nan nan nan
nan nan nan nan nan nan nan nan nan nan nan nan nan nan nan nan nan nan nan nan nan nan nan nan 3 4 4 2 0 0 0 0 nan nan nan nan nan nan nan nan nan nan nan nan nan nan nan nan nan 0 0 5 6 1 nan nan 15 46 2 2 nan nan nan nan nan nan nan nan nan nan nan nan nan nan nan nan nan nan nan nan nan nan nan nan nan nan nan nan nan nan nan nan nan nan nan nan nan nan nan nan nan nan nan
nan nan nan nan nan nan nan nan nan nan nan nan nan nan nan nan nan nan nan nan nan nan 17 17 28 17 17 1 nan 1 1 0 1 3 4 4 0 nan nan nan 0 nan nan nan nan 1 0 0 7 16 16 19 20 1 nan nan 18 17 nan nan nan nan nan nan nan nan nan nan nan nan nan nan nan nan nan nan nan nan nan nan nan nan nan nan nan nan nan nan nan nan nan nan nan nan nan nan nan nan nan nan nan nan nan
nan nan nan nan nan nan nan nan nan nan nan nan nan nan nan 0 2 2 nan nan nan nan 12 12 41 25 25 2 nan 3 3 0 0 2 2 2 1 3 5 5 7 0 nan nan nan 0 8 8 16 29 29 30 27 12 9 9 13 nan nan nan nan nan nan nan nan nan nan nan nan nan nan nan nan nan nan nan nan nan nan nan nan nan nan nan nan nan nan nan nan nan nan nan nan nan nan nan nan nan nan nan nan nan nan
nan nan nan nan nan nan nan nan 3 2 2 0 5 6 6 5 2 8 6 6 nan nan 15 15 8 3 3 0 nan nan nan nan 0 2 1 1 nan nan 0 0 5 9 6 6 2 4 9 9 18 31 31 28 24 19 6 6 4 nan nan nan nan nan nan nan nan nan nan nan nan nan nan nan nan nan nan nan nan nan nan nan nan nan nan nan nan nan nan nan nan nan nan nan nan nan nan nan nan nan nan nan nan nan nan
nan nan nan nan nan nan nan nan nan 1 1 3 4 9 9 12 20 16 8 8 nan nan 2 2 nan 1 1 nan nan nan nan nan 0 1 0 0 1 2 9 9 21 19 nan nan nan nan 0 0 7 12 12 17 18 7 1 1 1 nan nan nan nan nan nan nan nan nan nan nan nan nan nan nan nan nan nan nan nan nan nan nan nan nan nan nan nan nan nan nan nan nan nan nan nan nan nan nan nan nan nan nan nan nan nan
nan nan nan nan nan nan nan nan nan nan nan 0 nan 5 5 9 16 6 nan nan nan nan nan nan 1 nan nan nan nan nan nan nan nan 0 nan nan nan nan 8 8 20 nan nan nan nan 0 4 4 5 8 8 8 4 1 nan nan 2 nan nan nan nan nan nan nan nan nan nan nan nan nan nan nan nan nan nan nan nan nan nan nan nan nan nan nan nan nan nan nan nan nan nan nan nan nan nan nan nan nan nan nan nan nan nan
nan nan nan nan nan nan nan nan nan nan nan nan nan 2 2 6 7 6 nan nan nan nan nan nan nan nan nan nan nan nan nan nan nan nan nan nan nan nan nan nan nan nan nan nan nan 1 5 5 6 5 5 6 2 2 nan nan nan nan nan nan nan nan nan nan nan nan nan nan nan nan nan nan nan nan nan nan nan nan nan nan nan nan nan nan nan nan nan nan nan nan nan nan nan nan nan nan nan nan nan nan nan nan nan
nan nan nan nan nan nan nan nan nan nan nan 0 0 1 1 0 nan 1 nan nan nan nan nan nan 0 nan nan nan nan nan nan nan nan nan nan nan nan nan nan nan nan nan nan nan nan 0 nan nan nan nan nan nan nan nan nan nan nan nan nan nan nan nan nan nan nan nan nan nan nan nan nan nan nan nan nan nan nan nan nan nan nan nan nan nan nan nan nan nan nan nan nan nan nan nan nan nan nan nan nan nan nan nan nan
nan nan nan nan nan nan nan nan nan nan nan nan nan nan nan nan nan nan nan nan nan nan 2 2 nan nan nan nan nan nan nan nan nan nan nan nan nan nan nan nan nan nan nan nan nan nan nan nan nan nan nan nan nan nan nan nan nan nan nan nan nan nan nan nan nan nan nan nan nan nan nan nan nan nan nan nan nan nan nan nan nan nan nan nan nan nan nan nan nan nan nan nan nan nan nan nan nan nan nan nan nan nan nan
nan nan nan nan nan nan nan nan nan nan nan nan nan nan nan nan nan nan nan nan nan nan nan nan nan nan nan nan nan nan nan nan nan nan nan nan nan nan nan nan nan nan nan nan nan nan nan nan nan nan nan nan nan nan nan nan nan nan nan nan nan nan nan nan nan nan nan nan nan nan nan nan nan nan nan nan nan nan nan nan nan nan nan nan nan nan nan nan nan nan nan nan nan nan nan nan nan nan nan nan nan nan nan
nan nan nan nan nan nan nan nan nan nan nan nan nan nan nan nan nan nan nan nan nan nan nan nan nan nan nan nan nan nan nan nan nan nan nan nan nan nan nan nan nan nan nan nan nan nan nan nan nan nan nan nan nan nan nan nan nan nan nan nan nan nan nan nan nan nan nan nan nan nan nan nan nan nan nan nan nan nan nan nan nan nan nan nan nan nan nan nan nan nan nan nan nan nan nan nan nan nan nan nan nan nan nan
nan nan nan nan nan nan nan nan nan nan nan nan nan nan nan nan nan nan nan nan nan nan nan nan nan nan nan nan nan nan nan nan nan nan nan nan nan nan nan nan nan nan nan nan nan nan nan nan nan nan nan nan nan nan nan nan nan nan nan nan nan nan nan nan nan nan nan nan nan nan nan nan nan nan nan nan nan nan nan nan nan nan nan nan nan nan nan nan nan nan nan nan nan nan nan nan nan nan nan nan nan nan nan
nan nan nan nan nan nan nan nan nan nan nan nan nan nan nan nan nan nan nan nan nan nan nan nan nan nan nan nan nan nan nan nan nan nan nan nan nan nan nan nan nan nan nan nan nan nan nan nan nan nan nan nan nan nan nan nan nan nan nan nan nan nan nan nan nan nan nan nan nan nan nan nan nan nan nan nan nan nan nan nan nan nan nan nan nan nan nan nan nan nan nan nan nan nan nan nan nan nan nan nan nan nan nan
nan nan nan nan nan nan nan nan nan nan nan nan nan nan nan nan nan nan nan nan nan nan nan nan nan nan nan nan nan nan nan nan nan nan nan nan nan nan nan nan nan nan nan nan nan nan nan nan nan nan nan nan nan nan nan nan nan nan nan nan nan nan nan nan nan nan nan nan nan nan nan nan nan nan nan nan nan nan nan nan nan nan nan nan nan nan nan nan nan nan nan nan nan nan nan nan nan nan 4 4 6 nan nan
nan nan nan nan nan nan nan nan nan nan nan nan nan nan nan nan nan nan nan nan nan nan nan nan nan nan nan nan nan nan nan nan nan nan nan nan nan nan nan nan nan nan nan nan nan nan nan nan nan nan nan nan nan nan nan nan nan nan nan nan nan nan nan nan nan nan nan nan nan nan nan nan nan nan nan nan nan nan nan nan nan nan nan nan nan nan nan nan nan nan nan nan nan nan nan nan nan nan 4 4 10 nan nan
nan nan nan nan nan nan nan nan nan nan nan nan nan nan nan nan nan nan nan nan nan nan nan nan nan nan nan nan nan nan nan nan nan nan nan nan nan nan nan nan nan nan nan nan nan nan nan nan nan nan nan nan nan nan nan nan nan nan nan nan nan nan nan nan nan nan nan nan nan nan nan nan nan nan nan nan nan nan nan nan nan nan nan nan nan nan nan nan nan nan nan nan nan nan nan nan nan nan nan nan nan 1 nan
nan nan nan nan nan nan nan nan nan nan nan nan nan nan nan nan nan nan nan nan nan nan nan nan nan nan nan nan nan nan nan nan nan nan nan nan nan nan nan nan nan nan nan nan nan nan nan nan nan nan nan nan nan nan nan nan nan nan nan nan nan nan nan nan nan nan nan nan nan nan nan nan nan nan nan nan nan nan nan nan nan nan nan nan nan nan nan nan nan nan nan nan nan nan nan nan nan nan nan nan nan nan nan
nan nan nan nan nan nan nan nan nan nan nan nan nan nan nan nan nan nan nan nan nan nan nan nan nan nan nan nan nan nan nan nan nan nan nan nan nan nan nan nan nan nan nan nan nan nan nan nan nan nan nan nan nan nan nan nan nan nan nan nan nan nan nan nan nan nan nan nan nan nan nan nan nan nan nan nan nan nan nan nan nan nan nan nan nan nan nan nan nan nan nan nan nan nan nan nan nan nan nan nan nan nan nan
nan nan nan nan nan nan nan nan nan nan nan nan nan nan nan nan nan nan nan nan nan nan nan nan nan nan nan nan nan nan nan nan nan nan nan nan nan nan nan nan nan nan nan nan nan nan nan nan nan nan nan nan nan nan nan nan nan nan nan nan nan nan nan nan nan nan nan nan nan nan nan nan nan nan nan nan nan nan nan nan nan nan nan nan nan nan nan nan nan nan nan nan nan nan nan nan nan nan nan nan nan nan nan
nan nan nan nan nan nan nan nan nan nan nan nan nan nan nan nan nan nan nan nan nan nan nan nan nan nan nan nan nan nan nan nan nan nan nan nan nan nan nan nan nan nan nan nan nan nan nan nan nan nan nan nan nan nan nan nan nan nan nan nan nan nan nan nan nan nan nan nan nan nan nan nan nan nan nan nan nan nan nan nan nan nan nan nan nan nan nan nan nan nan nan nan nan nan nan nan nan nan nan nan nan nan 0
nan nan nan nan nan nan nan nan nan nan nan nan nan nan nan nan nan nan nan nan nan nan nan nan nan nan nan nan nan nan nan nan nan nan nan nan nan nan nan nan nan nan nan nan nan nan nan nan nan nan nan nan nan nan nan nan nan nan nan nan nan nan nan nan nan nan nan nan nan nan nan nan nan nan nan nan nan nan nan nan nan nan nan nan nan nan nan nan nan 3 3 1 0 0 nan nan nan nan nan nan nan nan nan
nan nan nan nan nan nan nan nan nan nan nan nan nan nan nan nan nan nan nan nan nan nan nan nan nan nan nan nan nan nan nan nan nan nan nan nan nan nan nan nan nan nan nan nan nan nan nan nan nan nan nan nan nan nan nan nan nan nan nan nan nan nan nan nan nan nan nan nan nan nan nan nan nan nan nan nan nan nan nan nan nan nan nan nan nan nan nan nan nan nan nan 5 6 6 3 3 4 6 5 5 20 11 2
nan nan nan nan nan nan nan nan nan nan nan nan nan nan nan nan nan nan nan nan nan nan nan nan nan nan nan nan nan nan nan nan nan nan nan nan nan nan nan nan nan nan nan nan nan nan nan nan nan nan nan nan nan nan nan nan nan nan nan nan nan nan nan nan nan nan nan nan nan nan nan nan nan nan nan nan nan nan nan nan nan nan nan nan nan nan nan nan nan nan nan 4 5 6 11 11 11 10 9 9 17 23 19
nan nan nan nan nan nan nan nan nan nan nan nan nan nan nan nan nan nan nan nan nan nan nan nan nan nan nan nan nan nan nan nan nan nan nan nan nan nan nan nan nan nan nan nan nan nan 0 0 0 nan nan nan nan nan nan nan nan nan nan nan nan nan nan nan nan nan nan nan nan nan nan nan nan nan nan nan nan nan nan nan nan nan nan nan nan nan nan nan nan nan nan 0 5 13 13 13 16 16 16 16 18 15 11
nan nan nan nan nan nan nan nan nan nan nan nan nan nan nan nan nan nan nan nan nan nan nan nan nan nan nan nan nan nan nan nan nan nan nan nan nan nan nan nan nan nan nan nan 0 1 1 1 0 1 1 nan nan nan nan nan nan nan nan nan nan nan nan nan nan nan nan nan nan nan nan nan nan nan nan nan nan 1 4 4 7 2 1 1 5 13 13 16 4 3 3 4 16 20 20 20 15 15 16 16 19 18 13
nan nan nan nan nan nan nan nan nan nan nan nan nan nan nan nan nan nan nan nan nan nan nan nan nan nan nan nan nan nan nan nan nan nan nan nan nan nan nan nan nan nan nan nan 1 4 2 2 1 0 0 nan nan nan nan nan nan nan nan nan nan nan nan nan nan nan nan nan nan nan nan nan nan nan nan nan 3 13 17 17 17 18 15 15 15 36 36 44 47 51 51 41 54 47 35 35 32 19 22 22 18 19 17
nan nan nan nan nan nan nan nan nan nan nan nan nan nan nan nan nan nan nan nan nan nan nan nan nan nan nan nan nan nan nan nan nan nan nan nan nan nan nan nan nan nan nan nan 2 5 2 2 1 nan nan nan nan nan nan nan nan nan nan nan nan nan nan nan nan nan nan nan nan nan nan nan nan 8 20 20 21 19 20 20 25 34 36 36 40 41 41 36 32 30 30 33 53 80 75 75 47 40 54 54 47 42 38
nan nan nan nan nan nan nan nan nan nan nan nan nan nan nan nan nan nan nan nan nan nan nan nan nan nan nan nan nan nan nan nan nan nan nan nan nan nan nan nan nan nan nan nan 3 0 2 2 3 nan nan nan nan nan nan nan nan nan nan nan nan nan nan nan nan nan nan nan nan 1 1 7 18 29 27 27 14 11 24 24 35 42 38 38 33 24 24 14 12 16 16 21 30 58 93 93 100 87 66 66 51 44 47